Location: Unspecified
(0.0000°N, 0.0000°E)
Time: 17:20:26
(UTC+02:00)

SWIFT - Visible Passes

Search period start: 24 July 2014 00:00
Search period end: 03 August 2014 00:00
Orbit: 561 x 578 km, 20.6° (Epoch: 22 July)

Date Brightness Start Highest point End Pass type
(mag) Time Alt. Az. Time Alt. Az. Time Alt. Az.
30 Jul 4.6 20:39:43 10° S 20:40:45 11° SSE 20:41:47 10° SSE visible
31 Jul 4.3 20:38:01 10° SSW 20:40:25 15° SSE 20:42:48 10° SE visible
31 Jul 5.2 22:18:46 10° SW 22:18:56 11° SW 22:18:56 11° SW visible
01 Aug 3.9 20:36:51 10° SSW 20:40:01 20° SSE 20:42:58 11° ESE visible
01 Aug 4.9 22:18:08 10° WSW 22:18:59 15° WSW 22:18:59 15° WSW visible
02 Aug 3.5 20:35:55 10° SW 20:39:36 28° SSE 20:43:04 11° ESE visible
02 Aug 4.7 22:17:39 10° WSW 22:19:05 21° WSW 22:19:05 21° WSW visible
